date,time,SUV Intensity [MED/Hr],UV Index,Daily total [MED],Since Last [MED]
19/05/2023,00:01:57,0.000,0.0,0.0,0.0
19/05/2023,00:02:56,0.000,0.0,0.0,0.0
19/05/2023,00:03:56,-0.000,0.0,0.0,0.0
19/05/2023,00:04:56,0.000,0.0,0.0,0.0
19/05/2023,00:05:56,0.001,0.0,0.0,0.0
19/05/2023,00:06:56,-0.000,0.0,0.0,0.0
19/05/2023,00:07:56,-0.000,0.0,0.0,0.0
19/05/2023,00:08:56,0.000,0.0,0.0,0.0
19/05/2023,00:09:57,0.000,0.0,0.0,0.0
19/05/2023,00:10:56,0.000,0.0,0.0,0.0
19/05/2023,00:11:56,-0.000,0.0,0.0,0.0
19/05/2023,00:12:56,0.000,0.0,0.0,0.0
19/05/2023,00:13:56,0.000,0.0,0.0,0.0
19/05/2023,00:14:56,0.000,0.0,0.0,0.0
19/05/2023,00:15:56,0.000,0.0,0.0,0.0
19/05/2023,00:16:56,0.000,0.0,0.0,0.0
19/05/2023,00:17:56,0.000,0.0,0.0,0.0
19/05/2023,00:18:56,0.000,0.0,0.0,0.0
19/05/2023,00:19:56,0.001,0.0,0.0,0.0
19/05/2023,00:20:56,0.000,0.0,0.0,0.0
19/05/2023,00:21:56,0.000,0.0,0.0,0.0
19/05/2023,00:22:56,0.000,0.0,0.0,0.0
19/05/2023,00:23:56,0.000,0.0,0.0,0.0
19/05/2023,00:24:56,-0.000,0.0,0.0,0.0
19/05/2023,00:25:57,0.000,0.0,0.0,0.0
19/05/2023,00:26:57,0.001,0.0,0.0,0.0
19/05/2023,00:27:56,0.000,0.0,0.0,0.0
19/05/2023,00:28:56,0.001,0.0,0.0,0.0
19/05/2023,00:29:56,-0.000,0.0,0.0,0.0
19/05/2023,00:30:56,0.001,0.0,0.0,0.0
19/05/2023,00:31:56,0.001,0.0,0.0,0.0
19/05/2023,00:32:56,0.000,0.0,0.0,0.0
19/05/2023,00:33:56,-0.000,0.0,0.0,0.0
19/05/2023,00:34:56,0.000,0.0,0.0,0.0
19/05/2023,00:35:56,0.000,0.0,0.0,0.0
19/05/2023,00:36:56,0.001,0.0,0.0,0.0
19/05/2023,00:37:56,0.000,0.0,0.0,0.0
19/05/2023,00:38:56,0.000,0.0,0.0,0.0
19/05/2023,00:39:56,0.000,0.0,0.0,0.0
19/05/2023,00:40:56,0.001,0.0,0.0,0.0
19/05/2023,00:41:56,-0.000,0.0,0.0,0.0
19/05/2023,00:42:56,0.000,0.0,0.0,0.0
19/05/2023,00:43:56,-0.000,0.0,0.0,0.0
19/05/2023,00:44:56,0.000,0.0,0.0,0.0
19/05/2023,00:45:56,0.000,0.0,0.0,0.0
19/05/2023,00:46:56,0.000,0.0,0.0,0.0
19/05/2023,00:47:56,0.000,0.0,0.0,0.0
19/05/2023,00:48:57,0.001,0.0,0.0,0.0
19/05/2023,00:49:57,0.000,0.0,0.0,0.0
19/05/2023,00:50:56,0.000,0.0,0.0,0.0
19/05/2023,00:51:56,0.000,0.0,0.0,0.0
19/05/2023,00:52:56,-0.000,0.0,0.0,0.0
19/05/2023,00:53:56,0.000,0.0,0.0,0.0
19/05/2023,00:54:56,0.000,0.0,0.0,0.0
19/05/2023,00:55:56,0.000,0.0,0.0,0.0
19/05/2023,00:56:56,0.000,0.0,0.0,0.0
19/05/2023,00:57:56,0.000,0.0,0.0,0.0
19/05/2023,00:58:57,0.000,0.0,0.0,0.0
19/05/2023,00:59:56,-0.000,0.0,0.0,0.0
19/05/2023,01:00:56,0.000,0.0,0.0,0.0
19/05/2023,01:01:56,0.001,0.0,0.0,0.0
19/05/2023,01:02:56,0.001,0.0,0.0,0.0
19/05/2023,01:03:56,-0.000,0.0,0.0,0.0
19/05/2023,01:04:56,0.000,0.0,0.0,0.0
19/05/2023,01:05:56,0.000,0.0,0.0,0.0
19/05/2023,01:06:57,0.000,0.0,0.0,0.0
19/05/2023,01:07:56,0.000,0.0,0.0,0.0
19/05/2023,01:08:56,0.000,0.0,0.0,0.0
19/05/2023,01:09:57,0.000,0.0,0.0,0.0
19/05/2023,01:10:56,0.000,0.0,0.0,0.0
19/05/2023,01:11:56,0.000,0.0,0.0,0.0
19/05/2023,01:12:57,0.000,0.0,0.0,0.0
19/05/2023,01:13:57,0.001,0.0,0.0,0.0
19/05/2023,01:14:56,0.001,0.0,0.0,0.0
19/05/2023,01:15:57,0.000,0.0,0.0,0.0
19/05/2023,01:16:56,0.000,0.0,0.0,0.0
19/05/2023,01:17:56,0.001,0.0,0.0,0.0
19/05/2023,01:18:56,0.000,0.0,0.0,0.0
19/05/2023,01:19:56,0.000,0.0,0.0,0.0
19/05/2023,01:20:56,0.000,0.0,0.0,0.0
19/05/2023,01:21:56,0.000,0.0,0.0,0.0
19/05/2023,01:22:57,0.000,0.0,0.0,0.0
19/05/2023,01:23:56,0.000,0.0,0.0,0.0
19/05/2023,01:24:56,-0.000,0.0,0.0,0.0
19/05/2023,01:25:56,0.001,0.0,0.0,0.0
19/05/2023,01:26:56,0.001,0.0,0.0,0.0
19/05/2023,01:27:56,0.000,0.0,0.0,0.0
19/05/2023,01:28:56,0.000,0.0,0.0,0.0
19/05/2023,01:29:56,0.000,0.0,0.0,0.0
19/05/2023,01:30:56,0.001,0.0,0.0,0.0
19/05/2023,01:31:55,0.000,0.0,0.0,0.0
19/05/2023,01:32:57,0.001,0.0,0.0,0.0
19/05/2023,01:33:57,-0.000,0.0,0.0,0.0
19/05/2023,01:34:56,0.001,0.0,0.0,0.0
19/05/2023,01:35:57,0.000,0.0,0.0,0.0
19/05/2023,01:36:56,0.001,0.0,0.0,0.0
19/05/2023,01:37:56,0.000,0.0,0.0,0.0
19/05/2023,01:38:56,0.001,0.0,0.0,0.0
19/05/2023,01:39:56,0.000,0.0,0.0,0.0
19/05/2023,01:40:56,0.000,0.0,0.0,0.0
19/05/2023,01:41:57,0.000,0.0,0.0,0.0
19/05/2023,01:42:56,0.001,0.0,0.0,0.0
19/05/2023,01:43:56,0.001,0.0,0.0,0.0
19/05/2023,01:44:56,0.001,0.0,0.0,0.0
19/05/2023,01:45:56,0.001,0.0,0.0,0.0
19/05/2023,01:46:56,0.000,0.0,0.0,0.0
19/05/2023,01:47:56,0.000,0.0,0.0,0.0
19/05/2023,01:48:56,0.001,0.0,0.0,0.0
19/05/2023,01:49:57,0.000,0.0,0.0,0.0
19/05/2023,01:50:56,0.001,0.0,0.0,0.0
19/05/2023,01:51:56,0.001,0.0,0.0,0.0
19/05/2023,01:52:56,-0.000,0.0,0.0,0.0
19/05/2023,01:53:56,0.000,0.0,0.0,0.0
19/05/2023,01:54:56,0.001,0.0,0.0,0.0
19/05/2023,01:55:56,0.001,0.0,0.0,0.0
19/05/2023,01:56:56,0.001,0.0,0.0,0.0
19/05/2023,01:57:56,0.000,0.0,0.0,0.0
19/05/2023,01:58:56,0.000,0.0,0.0,0.0
19/05/2023,01:59:57,0.000,0.0,0.0,0.0
19/05/2023,02:00:56,0.000,0.0,0.0,0.0
19/05/2023,02:01:57,0.000,0.0,0.0,0.0
19/05/2023,02:02:56,0.001,0.0,0.0,0.0
19/05/2023,02:03:56,0.000,0.0,0.0,0.0
19/05/2023,02:04:56,0.001,0.0,0.0,0.0
19/05/2023,02:05:57,0.001,0.0,0.0,0.0
19/05/2023,02:06:57,0.001,0.0,0.0,0.0
19/05/2023,02:07:56,0.001,0.0,0.0,0.0
19/05/2023,02:08:57,0.001,0.0,0.0,0.0
19/05/2023,02:09:56,0.001,0.0,0.0,0.0
19/05/2023,02:10:56,0.000,0.0,0.0,0.0
19/05/2023,02:11:56,0.000,0.0,0.0,0.0
19/05/2023,02:12:57,0.001,0.0,0.0,0.0
19/05/2023,02:13:57,0.000,0.0,0.0,0.0
19/05/2023,02:14:56,0.000,0.0,0.0,0.0
19/05/2023,02:15:57,0.000,0.0,0.0,0.0
19/05/2023,02:16:57,-0.000,0.0,0.0,0.0
19/05/2023,02:17:57,-0.000,0.0,0.0,0.0
19/05/2023,02:18:56,-0.000,0.0,0.0,0.0
19/05/2023,02:19:56,0.000,0.0,0.0,0.0
19/05/2023,02:20:56,0.000,0.0,0.0,0.0
19/05/2023,02:21:56,0.001,0.0,0.0,0.0
19/05/2023,02:22:56,0.001,0.0,0.0,0.0
19/05/2023,02:23:56,0.001,0.0,0.0,0.0
19/05/2023,02:24:56,-0.000,0.0,0.0,0.0
19/05/2023,02:25:56,0.002,0.0,0.0,0.0
19/05/2023,02:26:57,0.001,0.0,0.0,0.0
19/05/2023,02:27:56,-0.000,0.0,0.0,0.0
19/05/2023,02:28:56,0.001,0.0,0.0,0.0
19/05/2023,02:29:56,0.000,0.0,0.0,0.0
19/05/2023,02:30:56,0.001,0.0,0.0,0.0
19/05/2023,02:31:56,0.001,0.0,0.0,0.0
19/05/2023,02:32:57,0.001,0.0,0.0,0.0
19/05/2023,02:33:56,0.001,0.0,0.0,0.0
19/05/2023,02:34:57,0.001,0.0,0.0,0.0
19/05/2023,02:35:57,0.001,0.0,0.0,0.0
19/05/2023,02:36:56,0.001,0.0,0.0,0.0
19/05/2023,02:37:57,0.001,0.0,0.0,0.0
19/05/2023,02:38:57,0.001,0.0,0.0,0.0
19/05/2023,02:39:57,0.001,0.0,0.0,0.0
19/05/2023,02:40:57,0.001,0.0,0.0,0.0
19/05/2023,02:41:56,0.001,0.0,0.0,0.0
19/05/2023,02:42:56,0.001,0.0,0.0,0.0
19/05/2023,02:43:56,0.001,0.0,0.0,0.0
19/05/2023,02:44:56,0.001,0.0,0.0,0.0
19/05/2023,02:45:56,0.001,0.0,0.0,0.0
19/05/2023,02:46:56,0.000,0.0,0.0,0.0
19/05/2023,02:47:56,0.001,0.0,0.0,0.0
19/05/2023,02:48:56,0.001,0.0,0.0,0.0
19/05/2023,02:49:56,0.000,0.0,0.0,0.0
19/05/2023,02:50:56,0.000,0.0,0.0,0.0
19/05/2023,02:51:56,0.001,0.0,0.0,0.0
19/05/2023,02:52:57,0.002,0.0,0.0,0.0
19/05/2023,02:53:56,-0.000,0.0,0.0,0.0
19/05/2023,02:54:56,0.001,0.0,0.0,0.0
19/05/2023,02:55:56,0.001,0.0,0.0,0.0
19/05/2023,02:56:56,0.001,0.0,0.0,0.0
19/05/2023,02:57:56,-0.000,0.0,0.0,0.0
19/05/2023,02:58:56,0.002,0.0,0.0,0.0
19/05/2023,02:59:57,0.002,0.0,0.0,0.0
19/05/2023,03:00:57,0.001,0.0,0.0,0.0
19/05/2023,03:01:57,0.001,0.0,0.0,0.0
19/05/2023,03:02:57,0.001,0.0,0.0,0.0
19/05/2023,03:03:57,0.001,0.0,0.0,0.0
19/05/2023,03:04:56,0.001,0.0,0.0,0.0
19/05/2023,03:05:56,0.001,0.0,0.0,0.0
19/05/2023,03:06:56,0.001,0.0,0.0,0.0
19/05/2023,03:07:57,-0.000,0.0,0.0,0.0
19/05/2023,03:08:57,0.001,0.0,0.0,0.0
19/05/2023,03:09:56,0.001,0.0,0.0,0.0
19/05/2023,03:10:56,0.001,0.0,0.0,0.0
19/05/2023,03:11:56,0.001,0.0,0.0,0.0
19/05/2023,03:12:57,0.001,0.0,0.0,0.0
19/05/2023,03:13:57,-0.000,0.0,0.0,0.0
19/05/2023,03:14:56,0.001,0.0,0.0,0.0
19/05/2023,03:15:56,0.002,0.0,0.0,0.0
19/05/2023,03:16:56,0.001,0.0,0.0,0.0
19/05/2023,03:17:57,0.001,0.0,0.0,0.0
19/05/2023,03:18:56,0.000,0.0,0.0,0.0
19/05/2023,03:19:57,0.001,0.0,0.0,0.0
19/05/2023,03:20:56,0.001,0.0,0.0,0.0
19/05/2023,03:21:57,0.001,0.0,0.0,0.0
19/05/2023,03:22:57,0.001,0.0,0.0,0.0
19/05/2023,03:23:57,0.000,0.0,0.0,0.0
19/05/2023,03:24:56,-0.000,0.0,0.0,0.0
19/05/2023,03:25:56,0.001,0.0,0.0,0.0
19/05/2023,03:26:56,0.001,0.0,0.0,0.0
19/05/2023,03:27:56,0.001,0.0,0.0,0.0
19/05/2023,03:28:57,0.001,0.0,0.0,0.0
19/05/2023,03:29:57,0.001,0.0,0.0,0.0
19/05/2023,03:30:57,0.002,0.0,0.0,0.0
19/05/2023,03:31:56,0.001,0.0,0.0,0.0
19/05/2023,03:32:56,0.001,0.0,0.0,0.0
19/05/2023,03:33:56,0.001,0.0,0.0,0.0
19/05/2023,03:34:57,0.002,0.0,0.0,0.0
19/05/2023,03:35:56,0.001,0.0,0.0,0.0
19/05/2023,03:36:56,0.001,0.0,0.0,0.0
19/05/2023,03:37:57,0.001,0.0,0.0,0.0
19/05/2023,03:38:56,0.001,0.0,0.0,0.0
19/05/2023,03:39:56,0.001,0.0,0.0,0.0
19/05/2023,03:40:56,0.001,0.0,0.0,0.0
19/05/2023,03:41:57,0.001,0.0,0.0,0.0
19/05/2023,03:42:56,0.001,0.0,0.0,0.0
19/05/2023,03:43:57,0.001,0.0,0.0,0.0
19/05/2023,03:44:57,-0.000,0.0,0.0,0.0
19/05/2023,03:45:56,-0.000,0.0,0.0,0.0
19/05/2023,03:46:57,0.001,0.0,0.0,0.0
19/05/2023,03:47:56,0.002,0.0,0.0,0.0
19/05/2023,03:48:56,0.001,0.0,0.0,0.0
19/05/2023,03:49:56,0.000,0.0,0.0,0.0
19/05/2023,03:50:56,0.000,0.0,0.0,0.0
19/05/2023,03:51:57,0.001,0.0,0.0,0.0
19/05/2023,03:52:57,0.001,0.0,0.0,0.0
19/05/2023,03:53:56,0.001,0.0,0.0,0.0
19/05/2023,03:54:56,0.001,0.0,0.0,0.0
19/05/2023,03:55:56,0.001,0.0,0.0,0.0
19/05/2023,03:56:57,0.001,0.0,0.0,0.0
19/05/2023,03:57:56,0.002,0.0,0.0,0.0
19/05/2023,03:58:56,0.001,0.0,0.0,0.0
19/05/2023,04:00:19,0.001,0.0,0.0,0.0
19/05/2023,04:01:57,0.002,0.0,0.0,0.0
19/05/2023,04:02:57,0.001,0.0,0.0,0.0
19/05/2023,04:03:57,0.001,0.0,0.0,0.0
19/05/2023,04:04:56,0.001,0.0,0.0,0.0
19/05/2023,04:05:57,0.001,0.0,0.0,0.0
19/05/2023,04:06:57,0.002,0.0,0.0,0.0
19/05/2023,04:07:57,0.001,0.0,0.0,0.0
19/05/2023,04:08:57,0.002,0.0,0.0,0.0
19/05/2023,04:09:57,0.002,0.0,0.0,0.0
19/05/2023,04:10:57,0.002,0.0,0.0,0.0
19/05/2023,04:11:56,0.002,0.0,0.0,0.0
19/05/2023,04:12:57,0.002,0.0,0.0,0.0
19/05/2023,04:13:56,0.002,0.0,0.0,0.0
19/05/2023,04:14:57,0.002,0.0,0.0,0.0
19/05/2023,04:15:57,0.002,0.0,0.0,0.0
19/05/2023,04:16:57,0.003,0.0,0.0,0.0
19/05/2023,04:17:57,0.002,0.0,0.0,0.0
19/05/2023,04:18:57,0.002,0.0,0.0,0.0
19/05/2023,04:19:56,0.003,0.0,0.0,0.0
19/05/2023,04:20:56,0.004,0.0,0.0,0.0
19/05/2023,04:21:57,0.003,0.0,0.0,0.0
19/05/2023,04:22:56,0.004,0.0,0.0,0.0
19/05/2023,04:23:57,0.004,0.0,0.0,0.0
19/05/2023,04:24:57,0.003,0.0,0.0,0.0
19/05/2023,04:25:56,0.004,0.0,0.0,0.0
19/05/2023,04:26:57,0.005,0.0,0.0,0.0
19/05/2023,04:27:56,0.004,0.0,0.0,0.0
19/05/2023,04:28:57,0.004,0.0,0.0,0.0
19/05/2023,04:29:56,0.004,0.0,0.0,0.0
19/05/2023,04:30:57,0.005,0.0,0.0,0.0
19/05/2023,04:31:56,0.005,0.0,0.0,0.0
19/05/2023,04:32:57,0.006,0.0,0.0,0.0
19/05/2023,04:33:56,0.006,0.0,0.0,0.0
19/05/2023,04:34:57,0.006,0.0,0.0,0.0
19/05/2023,04:35:56,0.006,0.0,0.0,0.0
19/05/2023,04:36:56,0.006,0.0,0.0,0.0
19/05/2023,04:37:56,0.007,0.0,0.0,0.0
19/05/2023,04:38:56,0.006,0.0,0.0,0.0
19/05/2023,04:39:56,0.007,0.0,0.0,0.0
19/05/2023,04:40:57,0.007,0.0,0.0,0.0
19/05/2023,04:41:57,0.007,0.0,0.001,0.001
19/05/2023,04:42:57,0.008,0.0,0.001,0.0
19/05/2023,04:43:57,0.008,0.0,0.001,0.0
19/05/2023,04:44:57,0.008,0.0,0.001,0.0
19/05/2023,04:45:56,0.009,0.0,0.001,0.0
19/05/2023,04:46:56,0.009,0.0,0.001,0.0
19/05/2023,04:47:57,0.009,0.0,0.001,0.0
19/05/2023,04:48:57,0.010,0.0,0.002,0.001
19/05/2023,04:49:56,0.009,0.0,0.002,0.0
19/05/2023,04:50:56,0.011,0.0,0.002,0.0
19/05/2023,04:51:56,0.011,0.0,0.002,0.0
19/05/2023,04:52:57,0.011,0.0,0.002,0.0
19/05/2023,04:53:57,0.012,0.0,0.002,0.0
19/05/2023,04:54:57,0.013,0.0,0.003,0.001
19/05/2023,04:55:57,0.014,0.0,0.003,0.0
19/05/2023,04:56:57,0.014,0.0,0.003,0.0
19/05/2023,04:57:57,0.014,0.0,0.003,0.0
19/05/2023,04:58:57,0.015,0.0,0.004,0.001
19/05/2023,04:59:58,0.016,0.0,0.004,0.0
19/05/2023,05:00:56,0.016,0.0,0.004,0.0
19/05/2023,05:01:57,0.016,0.0,0.004,0.0
19/05/2023,05:02:57,0.017,0.0,0.005,0.001
19/05/2023,05:03:57,0.017,0.0,0.005,0.0
19/05/2023,05:04:57,0.019,0.0,0.005,0.0
19/05/2023,05:05:57,0.019,0.0,0.006,0.001
19/05/2023,05:06:57,0.020,0.0,0.006,0.0
19/05/2023,05:07:56,0.020,0.0,0.006,0.0
19/05/2023,05:08:57,0.021,0.0,0.007,0.001
19/05/2023,05:09:57,0.022,0.0,0.007,0.0
19/05/2023,05:10:56,0.022,0.0,0.007,0.0
19/05/2023,05:11:57,0.022,0.0,0.008,0.001
19/05/2023,05:12:56,0.023,0.0,0.008,0.0
19/05/2023,05:13:57,0.023,0.0,0.008,0.0
19/05/2023,05:14:57,0.025,0.0,0.009,0.001
19/05/2023,05:15:57,0.025,0.0,0.009,0.0
19/05/2023,05:16:57,0.026,0.0,0.01,0.001
19/05/2023,05:17:56,0.026,0.0,0.01,0.0
19/05/2023,05:18:56,0.027,0.0,0.011,0.001
19/05/2023,05:19:56,0.027,0.0,0.011,0.0
19/05/2023,05:20:57,0.028,0.0,0.011,0.0
19/05/2023,05:21:57,0.028,0.0,0.012,0.001
19/05/2023,05:22:56,0.029,0.0,0.012,0.0
19/05/2023,05:23:57,0.029,0.0,0.013,0.001
19/05/2023,05:24:57,0.030,0.0,0.013,0.0
19/05/2023,05:25:57,0.031,0.0,0.014,0.001
19/05/2023,05:26:57,0.031,0.0,0.014,0.0
19/05/2023,05:27:56,0.032,0.0,0.015,0.001
19/05/2023,05:28:57,0.032,0.0,0.015,0.0
19/05/2023,05:29:56,0.033,0.0,0.016,0.001
19/05/2023,05:30:56,0.033,0.0,0.017,0.001
19/05/2023,05:31:57,0.034,0.0,0.017,0.0
19/05/2023,05:32:57,0.034,0.0,0.018,0.001
19/05/2023,05:33:57,0.035,0.0,0.018,0.0
19/05/2023,05:34:57,0.036,0.0,0.019,0.001
19/05/2023,05:35:57,0.037,0.0,0.019,0.0
19/05/2023,05:36:57,0.037,0.0,0.02,0.001
19/05/2023,05:37:56,0.037,0.0,0.021,0.001
19/05/2023,05:38:57,0.037,0.0,0.021,0.0
19/05/2023,05:39:56,0.037,0.0,0.022,0.001
19/05/2023,05:40:57,0.037,0.0,0.023,0.001
19/05/2023,05:41:57,0.037,0.0,0.023,0.0
19/05/2023,05:42:57,0.037,0.0,0.024,0.001
19/05/2023,05:43:56,0.037,0.0,0.024,0.0
19/05/2023,05:44:56,0.038,0.0,0.025,0.001
19/05/2023,05:45:56,0.037,0.0,0.026,0.001
19/05/2023,05:46:57,0.040,0.0,0.026,0.0
19/05/2023,05:47:57,0.040,0.0,0.027,0.001
19/05/2023,05:48:57,0.041,0.0,0.028,0.001
19/05/2023,05:49:56,0.042,0.0,0.028,0.0
19/05/2023,05:50:56,0.044,0.0,0.029,0.001
19/05/2023,05:51:57,0.044,0.0,0.03,0.001
19/05/2023,05:52:57,0.046,0.0,0.031,0.001
19/05/2023,05:53:57,0.048,0.0,0.031,0.0
19/05/2023,05:54:56,0.049,0.0,0.032,0.001
19/05/2023,05:55:56,0.050,0.0,0.033,0.001
19/05/2023,05:56:57,0.052,0.0,0.034,0.001
19/05/2023,05:57:57,0.054,0.0,0.035,0.001
19/05/2023,05:58:56,0.055,0.0,0.036,0.001
19/05/2023,05:59:57,0.055,0.0,0.036,0.0
19/05/2023,06:00:57,0.056,0.0,0.037,0.001
19/05/2023,06:01:57,0.058,0.0,0.038,0.001
19/05/2023,06:02:56,0.059,0.0,0.039,0.001
19/05/2023,06:03:56,0.061,0.0,0.04,0.001
19/05/2023,06:04:57,0.063,0.0,0.041,0.001
19/05/2023,06:05:57,0.066,0.0,0.042,0.001
19/05/2023,06:06:57,0.069,0.0,0.044,0.002
19/05/2023,06:07:57,0.071,0.0,0.045,0.001
19/05/2023,06:08:57,0.075,0.0,0.046,0.001
19/05/2023,06:09:56,0.077,0.0,0.047,0.001
19/05/2023,06:10:56,0.080,0.0,0.049,0.002
19/05/2023,06:11:57,0.082,0.0,0.05,0.001
19/05/2023,06:12:56,0.085,0.0,0.051,0.001
19/05/2023,06:13:57,0.089,0.0,0.053,0.002
19/05/2023,06:14:57,0.092,0.0,0.054,0.001
19/05/2023,06:15:57,0.096,0.0,0.056,0.002
19/05/2023,06:16:57,0.101,0.0,0.057,0.001
19/05/2023,06:17:57,0.105,0.0,0.059,0.002
19/05/2023,06:18:57,0.109,0.0,0.061,0.002
19/05/2023,06:19:56,0.113,0.0,0.063,0.002
19/05/2023,06:20:57,0.117,0.0,0.065,0.002
19/05/2023,06:21:57,0.121,0.0,0.067,0.002
19/05/2023,06:22:57,0.125,0.0,0.069,0.002
19/05/2023,06:23:57,0.128,0.0,0.071,0.002
19/05/2023,06:24:57,0.131,0.0,0.073,0.002
19/05/2023,06:25:56,0.134,0.0,0.075,0.002
19/05/2023,06:26:56,0.135,0.0,0.077,0.002
19/05/2023,06:27:56,0.137,0.0,0.08,0.003
19/05/2023,06:28:57,0.140,0.0,0.082,0.002
19/05/2023,06:29:57,0.139,0.0,0.084,0.002
19/05/2023,06:30:56,0.146,0.0,0.087,0.003
19/05/2023,06:31:56,0.149,0.0,0.089,0.002
19/05/2023,06:32:57,0.154,0.0,0.092,0.003
19/05/2023,06:33:56,0.156,0.0,0.094,0.002
19/05/2023,06:34:57,0.161,0.0,0.097,0.003
19/05/2023,06:35:57,0.165,0.0,0.1,0.003
19/05/2023,06:36:56,0.172,0.0,0.102,0.002
19/05/2023,06:37:56,0.177,0.0,0.105,0.003
19/05/2023,06:38:57,0.181,0.0,0.108,0.003
19/05/2023,06:39:57,0.183,0.0,0.111,0.003
19/05/2023,06:40:57,0.184,0.0,0.114,0.003
19/05/2023,06:41:56,0.175,0.0,0.117,0.003
19/05/2023,06:42:57,0.176,0.0,0.12,0.003
19/05/2023,06:43:57,0.177,0.0,0.123,0.003
19/05/2023,06:44:57,0.177,0.0,0.126,0.003
19/05/2023,06:45:57,0.177,0.0,0.129,0.003
19/05/2023,06:46:57,0.178,0.0,0.132,0.003
19/05/2023,06:47:57,0.182,0.0,0.135,0.003
19/05/2023,06:48:57,0.186,0.0,0.138,0.003
19/05/2023,06:49:57,0.191,0.0,0.141,0.003
19/05/2023,06:50:57,0.196,0.0,0.145,0.004
19/05/2023,06:51:57,0.201,0.0,0.148,0.003
19/05/2023,06:52:57,0.206,0.0,0.151,0.003
19/05/2023,06:53:57,0.208,0.0,0.155,0.004
19/05/2023,06:54:56,0.211,0.0,0.158,0.003
19/05/2023,06:55:56,0.212,0.0,0.162,0.004
19/05/2023,06:56:57,0.211,0.0,0.165,0.003
19/05/2023,06:57:57,0.209,0.0,0.169,0.004
19/05/2023,06:58:57,0.209,0.0,0.172,0.003
19/05/2023,06:59:57,0.210,0.0,0.176,0.004
19/05/2023,07:00:57,0.211,0.0,0.179,0.003
19/05/2023,07:01:56,0.212,0.0,0.183,0.004
19/05/2023,07:02:57,0.215,0.0,0.187,0.004
19/05/2023,07:03:57,0.215,0.0,0.19,0.003
19/05/2023,07:04:56,0.215,0.0,0.194,0.004
19/05/2023,07:05:57,0.217,1.0,0.197,0.003
19/05/2023,07:06:57,0.221,1.0,0.201,0.004
19/05/2023,07:07:57,0.222,1.0,0.205,0.004
19/05/2023,07:08:56,0.226,1.0,0.208,0.003
19/05/2023,07:09:56,0.232,1.0,0.212,0.004
19/05/2023,07:10:57,0.234,1.0,0.216,0.004
19/05/2023,07:11:56,0.239,1.0,0.22,0.004
19/05/2023,07:12:57,0.240,1.0,0.224,0.004
19/05/2023,07:13:57,0.246,1.0,0.228,0.004
19/05/2023,07:14:57,0.253,1.0,0.232,0.004
19/05/2023,07:15:57,0.255,1.0,0.236,0.004
19/05/2023,07:16:57,0.257,1.0,0.241,0.005
19/05/2023,07:17:57,0.263,1.0,0.245,0.004
19/05/2023,07:18:57,0.270,1.0,0.249,0.004
19/05/2023,07:19:57,0.292,1.0,0.254,0.005
19/05/2023,07:20:57,0.303,1.0,0.259,0.005
19/05/2023,07:21:56,0.316,1.0,0.264,0.005
19/05/2023,07:22:57,0.320,1.0,0.269,0.005
19/05/2023,07:23:57,0.319,1.0,0.275,0.006
19/05/2023,07:24:57,0.318,1.0,0.28,0.005
19/05/2023,07:25:57,0.315,1.0,0.285,0.005
19/05/2023,07:26:57,0.314,1.0,0.29,0.005
19/05/2023,07:27:56,0.312,1.0,0.296,0.006
19/05/2023,07:28:57,0.303,1.0,0.301,0.005
19/05/2023,07:29:57,0.295,1.0,0.306,0.005
19/05/2023,07:30:57,0.291,1.0,0.311,0.005
19/05/2023,07:31:57,0.292,1.0,0.315,0.004
19/05/2023,07:32:57,0.284,1.0,0.32,0.005
19/05/2023,07:33:57,0.287,1.0,0.325,0.005
19/05/2023,07:34:57,0.278,1.0,0.33,0.005
19/05/2023,07:35:57,0.275,1.0,0.334,0.004
19/05/2023,07:36:57,0.264,1.0,0.339,0.005
19/05/2023,07:37:57,0.253,1.0,0.343,0.004
19/05/2023,07:38:57,0.250,1.0,0.347,0.004
19/05/2023,07:39:57,0.244,1.0,0.352,0.005
19/05/2023,07:40:57,0.245,1.0,0.356,0.004
19/05/2023,07:41:56,0.243,1.0,0.36,0.004
19/05/2023,07:42:57,0.245,1.0,0.364,0.004
19/05/2023,07:43:57,0.245,1.0,0.368,0.004
19/05/2023,07:44:56,0.245,1.0,0.372,0.004
19/05/2023,07:45:57,0.245,1.0,0.376,0.004
19/05/2023,07:46:57,0.246,1.0,0.38,0.004
19/05/2023,07:47:56,0.250,1.0,0.384,0.004
19/05/2023,07:48:57,0.254,1.0,0.388,0.004
19/05/2023,07:49:57,0.258,1.0,0.393,0.005
19/05/2023,07:50:57,0.262,1.0,0.397,0.004
19/05/2023,07:51:57,0.265,1.0,0.401,0.004
19/05/2023,07:52:56,0.268,1.0,0.406,0.005
19/05/2023,07:53:57,0.271,1.0,0.41,0.004
19/05/2023,07:54:57,0.273,1.0,0.415,0.005
19/05/2023,07:55:57,0.278,1.0,0.419,0.004
19/05/2023,07:56:57,0.281,1.0,0.424,0.005
19/05/2023,07:57:57,0.285,1.0,0.429,0.005
19/05/2023,07:58:57,0.290,1.0,0.434,0.005
19/05/2023,07:59:57,0.294,1.0,0.438,0.004
19/05/2023,08:00:57,0.299,1.0,0.443,0.005
19/05/2023,08:01:57,0.306,1.0,0.448,0.005
19/05/2023,08:02:57,0.309,1.0,0.454,0.006
19/05/2023,08:03:57,0.316,1.0,0.459,0.005
19/05/2023,08:04:57,0.320,1.0,0.464,0.005
19/05/2023,08:05:57,0.324,1.0,0.47,0.006
19/05/2023,08:06:56,0.328,1.0,0.475,0.005
19/05/2023,08:07:57,0.332,1.0,0.48,0.005
19/05/2023,08:08:57,0.334,1.0,0.486,0.006
19/05/2023,08:09:57,0.338,1.0,0.491,0.005
19/05/2023,08:10:57,0.340,1.0,0.497,0.006
19/05/2023,08:11:57,0.343,1.0,0.503,0.006
19/05/2023,08:12:57,0.344,1.0,0.509,0.006
19/05/2023,08:13:56,0.344,1.0,0.514,0.005
19/05/2023,08:14:57,0.346,1.0,0.52,0.006
19/05/2023,08:15:57,0.348,1.0,0.526,0.006
19/05/2023,08:16:56,0.350,1.0,0.532,0.006
19/05/2023,08:17:57,0.353,1.0,0.537,0.005
19/05/2023,08:18:56,0.355,1.0,0.543,0.006
19/05/2023,08:19:57,0.359,1.0,0.549,0.006
19/05/2023,08:20:58,0.361,1.0,0.556,0.007
19/05/2023,08:21:57,0.364,1.0,0.561,0.005
19/05/2023,08:22:57,0.368,1.0,0.567,0.006
19/05/2023,08:23:57,0.371,1.0,0.574,0.007
19/05/2023,08:24:57,0.378,1.0,0.58,0.006
19/05/2023,08:25:57,0.382,1.0,0.586,0.006
19/05/2023,08:26:57,0.388,1.0,0.593,0.007
19/05/2023,08:27:57,0.391,1.0,0.599,0.006
19/05/2023,08:28:58,0.397,1.0,0.606,0.007
19/05/2023,08:29:56,0.402,1.0,0.612,0.006
19/05/2023,08:30:57,0.405,1.0,0.619,0.007
19/05/2023,08:31:57,0.406,1.0,0.626,0.007
19/05/2023,08:32:57,0.409,1.0,0.633,0.007
19/05/2023,08:33:57,0.416,1.0,0.639,0.006
19/05/2023,08:34:57,0.417,1.0,0.647,0.008
19/05/2023,08:35:57,0.422,1.0,0.653,0.006
19/05/2023,08:36:56,0.428,1.0,0.66,0.007
19/05/2023,08:37:57,0.445,1.0,0.668,0.008
19/05/2023,08:39:20,0.441,1.0,0.678,0.01
19/05/2023,08:40:57,0.451,1.0,0.69,0.012
19/05/2023,08:41:57,0.457,1.0,0.698,0.008
19/05/2023,08:42:57,0.464,1.0,0.705,0.007
19/05/2023,08:43:57,0.472,1.0,0.713,0.008
19/05/2023,08:44:57,0.481,1.0,0.721,0.008
19/05/2023,08:45:56,0.486,1.0,0.729,0.008
19/05/2023,08:46:56,0.493,1.0,0.737,0.008
19/05/2023,08:47:57,0.502,1.0,0.745,0.008
19/05/2023,08:48:57,0.510,1.0,0.754,0.009
19/05/2023,08:49:57,0.537,1.0,0.763,0.009
19/05/2023,08:50:57,0.555,1.0,0.772,0.009
19/05/2023,08:51:57,0.544,1.0,0.781,0.009
19/05/2023,08:52:57,0.541,1.0,0.79,0.009
19/05/2023,08:53:57,0.566,1.0,0.799,0.009
19/05/2023,08:54:57,0.556,1.0,0.808,0.009
19/05/2023,08:55:57,0.568,1.0,0.818,0.01
19/05/2023,08:56:57,0.571,1.0,0.827,0.009
19/05/2023,08:57:57,0.561,1.0,0.837,0.01
19/05/2023,08:58:57,0.582,1.0,0.846,0.009
19/05/2023,08:59:57,0.640,1.0,0.856,0.01
19/05/2023,09:00:57,0.754,2.0,0.868,0.012
19/05/2023,09:01:57,0.795,2.0,0.881,0.013
19/05/2023,09:02:57,0.778,2.0,0.894,0.013
19/05/2023,09:03:57,0.826,2.0,0.907,0.013
19/05/2023,09:04:57,0.858,2.0,0.921,0.014
19/05/2023,09:05:57,0.896,2.0,0.936,0.015
19/05/2023,09:06:57,0.909,2.0,0.952,0.016
19/05/2023,09:07:57,0.914,2.0,0.967,0.015
19/05/2023,09:08:57,0.932,2.0,0.982,0.015
19/05/2023,09:09:58,0.945,2.0,0.998,0.016
19/05/2023,09:10:57,0.955,2.0,1.013,0.015
19/05/2023,09:11:57,0.964,2.0,1.029,0.016
19/05/2023,09:12:57,0.964,2.0,1.045,0.016
19/05/2023,09:13:57,0.962,2.0,1.061,0.016
19/05/2023,09:14:57,0.915,2.0,1.078,0.017
19/05/2023,09:15:57,0.767,2.0,1.091,0.013
19/05/2023,09:16:57,0.756,2.0,1.104,0.013
19/05/2023,09:17:57,0.766,2.0,1.116,0.012
19/05/2023,09:18:57,0.816,2.0,1.129,0.013
19/05/2023,09:19:57,0.884,2.0,1.143,0.014
19/05/2023,09:21:00,0.910,2.0,1.159,0.016
19/05/2023,09:21:58,0.906,2.0,1.174,0.015
19/05/2023,09:22:57,0.961,2.0,1.189,0.015
19/05/2023,09:23:57,0.995,2.0,1.206,0.017
19/05/2023,09:24:57,0.994,2.0,1.222,0.016
19/05/2023,09:25:57,0.988,2.0,1.239,0.017
19/05/2023,09:26:57,1.001,2.0,1.255,0.016
19/05/2023,09:27:58,1.018,2.0,1.272,0.017
19/05/2023,09:28:58,0.919,2.0,1.289,0.017
19/05/2023,09:29:58,0.900,2.0,1.304,0.015
19/05/2023,09:30:57,0.899,2.0,1.318,0.014
19/05/2023,09:31:57,0.915,2.0,1.334,0.016
19/05/2023,09:32:58,0.925,2.0,1.35,0.016
19/05/2023,09:33:57,0.900,2.0,1.365,0.015
19/05/2023,09:34:57,0.901,2.0,1.38,0.015
19/05/2023,09:35:57,0.932,2.0,1.395,0.015
19/05/2023,09:36:57,0.943,2.0,1.41,0.015
19/05/2023,09:37:57,0.935,2.0,1.426,0.016
19/05/2023,09:38:57,0.982,2.0,1.441,0.015
19/05/2023,09:39:57,1.012,2.0,1.458,0.017
19/05/2023,09:40:57,1.066,2.0,1.475,0.017
19/05/2023,09:41:57,1.090,3.0,1.494,0.019
19/05/2023,09:42:57,1.138,3.0,1.513,0.019
19/05/2023,09:43:57,1.171,3.0,1.532,0.019
19/05/2023,09:44:57,1.200,3.0,1.552,0.02
19/05/2023,09:45:57,1.172,3.0,1.572,0.02
19/05/2023,09:46:57,1.216,3.0,1.592,0.02
19/05/2023,09:47:57,1.260,3.0,1.612,0.02
19/05/2023,09:48:57,1.247,3.0,1.633,0.021
19/05/2023,09:49:57,1.165,3.0,1.654,0.021
19/05/2023,09:50:57,1.067,2.0,1.673,0.019
19/05/2023,09:51:57,0.964,2.0,1.69,0.017
19/05/2023,09:52:57,0.920,2.0,1.705,0.015
19/05/2023,09:53:57,0.893,2.0,1.72,0.015
19/05/2023,09:54:57,0.941,2.0,1.735,0.015
19/05/2023,09:55:57,0.930,2.0,1.751,0.016
19/05/2023,09:56:57,0.934,2.0,1.767,0.016
19/05/2023,09:57:57,1.057,2.0,1.783,0.016
19/05/2023,09:58:58,1.065,2.0,1.799,0.016
19/05/2023,09:59:57,0.926,2.0,1.815,0.016
19/05/2023,10:00:57,0.935,2.0,1.83,0.015